Starlink 6099

operational
NORAD ID: 57108 Int'l Des: 2023-090 Owner: SPXS Country: US Constellation: starlink
LEOCIRCULAR

About Starlink 6099

Description loading...

Live Position

Loading 3D Globe...

Upcoming Passes

Altitude History

Altitude vs Time

uPlot chart will show altitude changes over time

Two-Line Element Set

1 57108U 23090H 26101.91668981 .00059149 00000-0 28056-2 0 9994
2 57108 43.0008 93.5221 0000684 300.6241 234.5233 15.18468520 5988
Epoch: Apr 11, 2026 • Age: 9 hours

Current Status

Altitude 511.8 km
Velocity 7.61 km/s
Sub-Earth Point -10.91°S, 139.65°E
Launch Date Jun 23, 2023
Age 2.8 years
Type internet

Technical Details

Classification Payload
Mass 305.00 kg
Dry Mass 290.00 kg
Total Mass 305.00 kg
Length 0.20 m
Diameter 2.80 m
Span 9.00 m
Shape Box + pan
Manufacturer SPXS
Bus Type Starlink
Phase Status In Orbit
Owner/State SPXS/US

Large Constellations

Loading constellations...